Wittman Regional Airport (Oshkosh, WI) (OSH)


Airport Diagram
Current Weather/Forecast (VFR Conditions)
METAR KOSH 300753Z AUTO 36007KT 10SM OVC041 01/M07 A3016 RMK AO2 SLP224 T00061067
TAF

All Charts
General
Chart Name Download
AIRPORT DIAGRAM
TAKEOFF MINIMUMS
ALTERNATE MINIMUMS
HOT SPOT

Approaches
Chart Name Download
ILS OR LOC RWY 36
RNAV (GPS) RWY 09
RNAV (GPS) RWY 18
RNAV (GPS) RWY 27
RNAV (GPS) RWY 36
LOC/DME BC RWY 18
VOR RWY 09
VOR RWY 18
VOR RWY 27
VOR RWY 36
NDB RWY 36